Tracking 21476 objects as of 29-Sep-2020
HD Live streaming from Space Station
objects crossing your sky now

IRIDIUM 33 DEB

Track IRIDIUM 33 DEB now!
10-day predictions


NORAD ID: 33864
Int'l Code: 1997-051AH
Perigee: 725.2 km
Apogee: 731.6 km
Inclination: 86.3 °
Period: 99.2 minutes
Semi major axis: 7099 km
RCS: 0.049 m2 (small)
Launch date: September 14, 1997
Source: United States (US)
Launch site: TYURATAM MISSILE AND SPACE COMPLEX (TTMTR)

Note: This is SATELLITE DEBRIS
aabbcc
Your satellite tracking list
Your tracking list is empty




NASA's NSSDC Master Catalog

Two Line Element Set (TLE):
1 33864U 97051AH  20272.69676229 +.00001452 +00000-0 +35951-3 0  9994
2 33864 086.2750 062.8413 0004459 183.9336 303.4674 14.51345583612288
Source of the keplerian elements: AFSPC